Location: Launois
(49.6535°N, 4.5395°E)
Time: 14:49:50
(UTC+00:00)

Cosmos 724 - Pass Details

Date: 23 May 2024
Orbit: 864 x 930 km, 65.6° (Epoch: 18 June)

Event Time Altitude Azimuth Distance (km) Brightness Sun altitude
Exits shadow 00:12:03 33° 208° (SSW) 1,442 4.9 -19.3°
Maximum altitude 00:14:50 80° 126° (SE) 895 4.2 -19.3°
Drops below altitude 10° 00:20:40 10° 40° (NE) 2,524 7.6 -19.1°
Sets 00:23:09 0° 40° (NE) 3,460 8.5 -19.0°
